Вернуться в каталог

RASSVET-3 31

АктивенPO
NORAD 100097·PAYLOAD·🇷🇺 Russia

Запущен Jul 19, 2026 с Plesetsk Cosmodrome

Loading…

Ближайшие Пролёты (ближайшие 24 часа)

TLE

СвежийSource: Space-Track

Эпоха: Sep 14, 2026, 12:17 UTC

1 A0097U 26165Q   26257.51246185 -.00125371  00000-0 -17729-2 0  9999
2 A0097  82.2995 167.9132 0008636 333.9618  26.1201 15.56895087  8934

Отслеживайте RASSVET-3 31 в реальном времени с AllMySat

Download on the App Store